Flag for U.S.A. Weather past 2 weeks in Chula Vista, California, U.S.A.

Now
64 °F

Partly sunny.


Feels Like: 64 °F
Forecast: 55 / 65 °F
Wind: 9 mph from Northwest

Location: Brown Field Municipal Airport

Current Time: Apr 21, 2015 at 5:33:19 PM

Latest Report: Apr 21, 2015 at 4:53 PM


Visibility: 10 mi

Pressure: 29.88 "Hg

Humidity: 52%

Dew point: 46 °F

Location of Chula VistaLocation

Historic Weather in Chula Vista — Graph

°F

Chula Vista temperature yesterday

Maximum temperature yesterday: 67 °F (at 12:53 PM)
Minimum temperature yesterday: 56 °F (at 8:53 PM)
Average temperature yesterday: 61 °F

Past Weeks' High & Low Weather Summary

 TemperatureHumidityPressure
High79 °F (Apr 16, 10:53 AM)100% (Apr 19, 5:53 AM)30.09 "Hg (Apr 19, 5:53 AM)
Low46 °F (Apr 9, 5:53 AM)4% (Apr 16, 11:53 AM)29.86 "Hg (Apr 20, 2:53 PM)
Average61 °F60%29.97 "Hg
* Reported Apr 6 3:53 PM — Apr 21 3:53 PM, Chula Vista, Weather by CustomWeather, © 2015

Note: Actual official high and low records may vary slightly from our data, if they occured in-between our weather recording intervals... More about our weather records

Advertising

Chula Vista weather history for previous 24 hours

 ConditionsComfort  
Time TempWeatherWind HumidityBarometerVisibility
3:53 PM
Tue, Apr 21
64 °FOvercast.10 mph50%29.89 "Hg10 mi
2:53 PM65 °FOvercast.9 mph47%29.91 "Hg10 mi
1:53 PM68 °FMostly cloudy.10 mph45%29.92 "Hg10 mi
12:53 PM67 °FMostly cloudy.10 mph47%29.93 "Hg10 mi
11:53 AM65 °FOvercast.9 mph49%29.93 "Hg10 mi
10:53 AM65 °FOvercast.No wind45%29.94 "Hg10 mi
9:53 AM64 °FOvercast.3 mph50%29.95 "Hg10 mi
8:53 AM61 °FOvercast.3 mph58%29.93 "Hg10 mi
7:53 AM60 °FOvercast.No wind62%29.93 "Hg10 mi
6:53 AM59 °FOvercast.3 mph64%29.92 "Hg10 mi
5:53 AM59 °FOvercast.No wind64%29.90 "Hg10 mi
4:53 AM59 °FOvercast.No wind67%29.90 "Hg10 mi
4:02 AM59 °FOvercast.No wind67%29.90 "Hg10 mi
3:53 AM59 °FOvercast.No wind69%29.89 "Hg10 mi
2:53 AM58 °FOvercast.No wind70%29.89 "Hg10 mi
1:53 AM58 °FOvercast.No wind72%29.89 "Hg10 mi
12:53 AM58 °FOvercast.No wind72%29.90 "Hg10 mi
11:53 PM
Mon, Apr 20
58 °FOvercast.5 mph75%29.91 "Hg10 mi
10:53 PM56 °FPassing clouds.No wind77%29.91 "Hg10 mi
9:53 PM56 °FClear.3 mph77%29.91 "Hg10 mi
8:53 PM56 °FClear.5 mph77%29.90 "Hg10 mi
7:53 PM58 °FSunny.6 mph72%29.88 "Hg10 mi
6:53 PM59 °FSunny.8 mph72%29.87 "Hg10 mi
5:53 PM61 °FPartly sunny.8 mph67%29.86 "Hg10 mi
Weather by CustomWeather, © 2015

See weather overviewHow to use our weather pages